Location: Grange Verzio
(44.5000°N, 6.9833°E)
Time: 19:02:50
(UTC+00:00)

Cosmos 2219 Rocket - Pass Details

Date: 25 September 2023
Orbit: 826 x 848 km, 71.0° (Epoch: 08 December)

Event Time Altitude Azimuth Distance (km) Brightness Sun altitude
Rises 20:11:49 0° 245° (WSW) 3,356 5.7 -29.3°
Reaches altitude 10° 20:14:45 10° 259° (W) 2,428 5.1 -29.8°
Maximum altitude 20:19:06 23° 311° (NW) 1,702 4.4 -30.4°
Drops below altitude 10° 20:23:29 10° 3° (N) 2,445 4.9 -31.1°
Sets 20:26:28 0° 18° (NNE) 3,386 5.5 -31.5°
